Regional Weather Roundup
Issued by NWS Memphis, TN

Home | Current Version | Previous Version | Text Only | Print | Product List | Glossary On
Versions: 1 2 3 4 5 6 7 8 9 10 11 12 13 14 15 16 17 18 19 20 21 22 23 24 25 26 27 28 29 30 31 32 33 34 35 36 37 38 39 40 41 42 43 44 45 46 47 48 49 50
000
ASUS44 KMEG 231910
RWRMEG
MEMPHIS CWA HOURLY WEATHER ROUNDUP
NATIONAL WEATHER SERVICE MEMPHIS TN
200 PM CDT THU OCT 23 2014

...WEST TENNESSEE...

CITY           SKY/WX    TMP DP  RH WIND       PRES   REMARKS
MEMPHIS INTL   CLOUDY    65  41  41 N5        30.14F
NWS MEMPHIS      N/A     62 N/A N/A MISG        N/A
JACKSON        PTSUNNY   66  42  41 VRB6      30.15F
LEXINGTON      SUNNY     63  41  45 CALM      30.13F
SAVANNAH       SUNNY     63  45  51 VRB5      30.14F
DYERSBURG      CLOUDY    61  39  44 NE5       30.17F
UNION CITY     SUNNY     57  45  62 CALM      30.16F
PARIS          SUNNY     59  43  55 N7        30.16F
HUNTINGDON     PTSUNNY   61  39  44 CALM      30.15F


...EASTERN ARKANSAS...

CITY           SKY/WX    TMP DP  RH WIND       PRES   REMARKS
JONESBORO      CLOUDY    59  44  57 CALM      30.17F
WEST MEMPHIS   CLOUDY    63  44  50 N8        30.14F
BATESVILLE     CLOUDY    57  48  72 CALM      30.19F
NEWPORT        CLOUDY    58  48  69 W7        30.20F
WALNUT RIDGE   CLOUDY    57  45  62 CALM      30.17F
BLYTHEVILLE    CLOUDY    63  45  51 NE5       30.16F
SEARCY         CLOUDY    61  46  57 VRB6      30.18F
STUTTGART      CLOUDY    63  46  55 N3        30.17F
PINE BLUFF     CLOUDY    61  45  55 CALM      30.17F
MONTICELLO     CLOUDY    61  49  64 NW3       30.14F


...NORTH MISSISSIPPI...

CITY           SKY/WX    TMP DP  RH WIND       PRES   REMARKS
TUPELO         PTSUNNY   66  44  45 VRB3      30.12F
OXFORD         PTSUNNY   63  41  45 NW5       30.15F
OLIVE BRANCH   PTSUNNY   61  43  51 N5        30.15F
TUNICA         CLOUDY    63  45  51 NW5       30.16F
CLARKSDALE     CLOUDY    61  46  59 CALM      30.15F
CORINTH        PTSUNNY   64  45  48 NW6       30.12F
GRENADA          N/A    N/A N/A N/A MISG        N/A
GREENWOOD      CLOUDY    64  45  49 N3        30.13
COLUMBUS       PTSUNNY   65  45  48 NE3       30.11F
STARKVILLE     FAIR      64  43  45 CALM      30.12F
GOLDEN TRIANGL PTSUNNY   66  39  37 N5        30.10F


...SOUTHEAST MISSOURI...

CITY           SKY/WX    TMP DP  RH WIND       PRES   REMARKS
WEST PLAINS    CLOUDY    56  45  66 S8        30.17F
POPLAR BLUFF   CLOUDY    56  45  66 SW3       30.17F
CAPE GIRARDEAU CLOUDY    58  44  60 SW3       30.18F


...NORTHWEST ALABAMA...

CITY           SKY/WX    TMP DP  RH WIND       PRES   REMARKS
MUSCLE SHOALS  MOSUNNY   66  40  38 VRB3      30.13F


...MIDDLE TENNESSEE...

CITY           SKY/WX    TMP DP  RH WIND       PRES   REMARKS
NASHVILLE      PTSUNNY   64  41  42 NE3       30.15F
CLARKSVILLE    PTSUNNY   62  42  47 VRB3      30.15F
COLUMBIA       SUNNY     64  43  45 NE6       30.11F


...WESTERN KENTUCKY...

CITY           SKY/WX    TMP DP  RH WIND       PRES   REMARKS
PADUCAH        CLOUDY    61  44  53 CALM      30.16F
FORT CAMPBELL  PTSUNNY   61  42  49 N5        30.15F


...CENTRAL ARKANSAS...

CITY           SKY/WX    TMP DP  RH WIND       PRES   REMARKS
LITTLE ROCK    CLOUDY    65  43  44 CALM      30.18F


SKY/WX REPORTED AS FAIR MEANS FEW OR NO CLOUDS BELOW
12 THOUSAND FEET.




USA.gov is the U.S. government's official web portal to all federal, state and local government web resources and services.